Погода в Мехикали

Мексика     32°38′22″N   115°27′04″W
темп.,
°C
ветер,
м/с
пор.,
м/с
влажн.,
%
обл.,
%
осадки,
мм/ч
давл.,
гПа
погр.,
м
18 января, пн
пн1801:00+15с01240 0.0 101223
04:00+14ссв01250 0.0 101123
07:00+14ююв11250 0.0 101123
10:00+24св111334 0.0 1011380
13:00+27св24974 0.0 10091583
16:00+26юв121084 0.0 100775
19:00+17всв221723 0.0 100723
22:00+16всв331912 0.0 100836
19 января, вт
вт1901:00+13юв22200 0.0 100723
04:00+11всв11220 0.0 100624
07:00+11в372236 0.0 1008164
10:00+18ссв461447 0.0 10101007
13:00+14св474885 0.6 1009547
16:00+13зсз6106993 1.9 1010423
19:00+12ссз5989100 2.0 1012387
22:00+12сз397499 3.5 1014317
20 января, ср
ср2001:00+12сз2378100 0.3 101489
04:00+12сз3474100 0.3 101484
07:00+13зсз3576100 0.5 1016157
10:00+15сз3468100 1.6 1017344
13:00+15сз5774100 1.8 1014301
16:00+13сз4975100 3.4 1013295
19:00+14зсз4976100 1.6 1014281
22:00+13зсз3585100 4.6 1015163
21 января, чт
чт2101:00+14св129099 2.8 101591
04:00+14с229199 6.3 101593
07:00+14сз4786100 0.4 1015265
10:00+16сз237290 0.9 1016350
13:00+21з22490 0.0 10141220
16:00+21ююз32460 0.0 1013759
19:00+17ююз33580 0.0 101432
22:00+16ююз23640 0.0 101552
22 января, пт
пт2201:00+15ююз11680 0.0 101425
04:00+14юв12712 0.0 101423
07:00+13юв237651 0.0 101530
10:00+19ююв335460 0.0 1015537
13:00+22ююз233299 0.0 10121490
16:00+21з5530100 0.0 1011990
19:00+16юз145532 0.0 101199
22:00+14зсз245417 0.0 101170